Temp
17 17 17 17 17 16 17 17 17 17 17 17 17 16 16 16 17 17 17 16 16 16 16 16 15 15 15 14 14 15 14 14 14 14 14 14 13 13 13 13 13 13 13 13 12 12 12 12 12 12 12 12 12 11 11 11 12 12 12 13 13 12 13 12 10 9 10 10 10 10 10 10 10 10 10 10 10 9 9 9 9 9 9 9 9
17 17 17 17 17 17 16 16 17 17 16 17 16 16 16 16 17 17 16 16 16 16 16 15 15 15 15 14 14 14 14 14 14 14 13 13 13 13 13 13 13 13 13 12 12 12 12 12 11 11 11 11 11 11 11 11 11 11 11 12 12 11 12 12 10 9 10 10 10 10 10 10 10 10 9 9 9 9 9 9 9 9 9 9 9
17 17 17 17 17 16 16 16 16 16 16 16 16 16 16 16 17 17 16 16 16 16 16 15 15 14 14 14 14 14 14 14 13 13 13 13 13 13 13 12 13 13 12 12 12 11 12 12 11 11 11 11 11 11 11 11 11 11 11 11 11 11 11 11 11 10 9 9 9 10 10 10 10 10 9 9 9 9 9 9 9 9 9 9 9
17 17 17 17 16 16 16 16 16 16 16 16 16 16 16 16 16 16 16 16 16 15 15 15 15 14 14 14 14 14 14 13 13 13 13 13 13 13 12 12 12 12 12 12 12 11 12 11 11 11 11 11 11 11 11 11 11 11 11 10 11 10 10 10 11 10 10 9 9 9 9 10 9 9 9 9 9 9 9 9 9 9 9 9 9
17 17 17 17 16 16 16 16 16 16 16 16 16 16 16 16 16 16 16 16 15 15 15 15 14 14 14 14 14 14 13 13 13 13 13 13 13 13 12 12 12 12 12 12 12 11 12 11 11 11 11 11 11 11 11 11 11 11 10 10 10 10 10 10 10 10 10 9 9 9 10 10 9 9 9 9 9 9 9 9 9 9 9 9 9
17 17 17 16 16 16 16 16 16 16 16 16 16 16 16 16 16 16 15 15 15 15 15 14 14 14 14 14 14 13 13 13 13 13 13 12 12 12 12 12 12 12 12 12 11 11 11 11 11 11 11 11 11 11 11 11 11 11 10 10 10 10 10 10 10 10 10 9 9 9 10 9 9 9 9 9 9 9 9 9 9 9 9 9 9
17 17 16 16 16 16 16 16 16 16 16 16 16 16 16 16 16 16 15 15 15 15 15 14 14 14 14 14 13 13 13 13 13 13 12 12 12 12 12 12 12 12 11 11 11 11 11 11 11 11 11 11 11 11 11 11 10 10 10 10 10 10 10 10 10 10 10 9 9 9 9 9 9 9 9 9 9 8 8 8 9 9 9 9 9
17 17 17 16 16 16 16 16 16 16 16 15 15 15 15 16 15 15 15 15 15 15 15 14 14 14 14 14 13 13 13 13 13 12 12 12 12 12 12 12 11 11 11 11 11 11 11 11 11 11 11 11 11 11 11 10 10 10 10 10 10 10 10 10 10 10 10 10 9 9 9 9 9 9 9 9 8 8 8 7 8 8 8 9 9
17 17 17 16 16 16 16 16 16 15 15 15 15 15 15 15 15 15 15 15 15 15 15 14 14 14 13 13 13 13 13 13 13 12 12 12 12 12 12 11 11 11 11 11 11 11 11 11 10 10 10 10 10 10 10 10 10 10 10 10 10 10 10 10 10 10 10 10 10 9 9 9 9 9 9 8 8 8 8 8 8 8 8 8 9
17 17 17 17 16 16 16 16 16 15 15 15 15 15 15 15 14 14 15 15 15 15 14 14 14 14 13 13 13 13 13 13 13 12 12 12 12 12 11 11 11 11 11 11 10 10 10 10 10 10 10 10 10 10 10 10 10 10 11 10 10 10 10 10 10 10 10 10 9 9 9 10 9 9 8 8 8 8 8 8 8 8 8 8 8
17 17 17 17 17 16 16 16 16 15 15 15 15 15 14 14 14 14 14 15 15 14 14 14 14 14 13 13 13 13 13 12 12 12 12 12 12 12 11 11 11 11 11 11 10 10 10 10 10 10 10 10 10 10 10 10 10 10 11 10 10 10 10 10 9 9 9 9 9 9 9 9 9 9 8 8 8 8 8 8 8 8 7 6 6
17 17 17 17 17 16 16 16 15 15 15 15 15 14 14 14 14 14 14 14 14 14 14 14 14 14 13 13 13 13 13 12 12 12 12 12 12 12 11 11 11 11 11 11 10 10 10 10 10 9 9 9 10 10 11 11 11 11 11 10 10 10 9 9 9 9 9 9 9 9 9 9 9 9 8 8 8 9 9 8 8 8 7 6 6
17 17 17 17 17 16 16 16 15 15 15 15 14 14 14 14 14 14 14 14 14 14 14 14 14 13 13 13 13 13 13 12 12 12 12 12 12 12 11 11 11 11 11 10 10 10 10 10 9 9 9 10 10 11 11 11 11 11 10 10 9 9 9 9 9 9 9 9 9 9 9 9 9 9 8 8 8 9 9 9 8 8 8 7 7
17 17 17 17 17 16 16 15 15 15 15 15 14 14 14 14 14 14 14 13 13 13 14 14 14 13 13 13 13 13 13 13 12 12 12 12 12 12 11 11 11 11 11 10 10 10 10 9 9 10 10 10 10 11 11 10 10 10 9 9 9 9 9 9 9 9 9 9 10 10 9 9 9 9 9 8 9 9 9 8 8 8 8 8 8
17 17 17 17 16 16 16 15 15 15 15 14 14 14 14 13 13 14 13 13 14 14 14 14 14 13 13 13 13 13 13 13 12 12 12 12 11 11 11 11 11 11 11 10 10 10 9 9 9 10 10 10 11 11 11 10 10 10 9 9 9 9 9 9 9 9 10 10 10 10 10 9 9 9 9 9 9 9 9 8 8 8 8 8 9
17 17 17 16 16 16 16 15 15 15 15 14 14 13 13 13 14 13 13 13 14 14 14 14 13 13 13 13 13 13 13 13 13 12 12 12 11 11 11 11 11 11 11 10 10 10 9 9 10 10 10 11 11 11 10 10 10 9 9 9 9 9 9 9 9 10 10 10 10 10 10 10 9 9 10 10 9 9 9 9 9 8 8 8 9
17 17 16 16 16 16 16 15 15 15 14 14 14 13 13 14 13 13 13 13 13 13 14 14 14 14 13 13 13 13 13 13 13 12 12 12 11 11 11 11 11 11 11 10 10 10 9 9 10 10 10 11 10 10 9 10 9 9 9 9 9 9 9 9 9 9 10 10 9 10 10 10 9 10 10 10 10 9 9 9 9 9 8 8 8
17 16 16 16 16 15 16 15 15 14 14 14 14 13 14 14 14 13 13 13 13 13 14 14 13 14 14 14 13 13 13 13 13 12 12 12 11 11 11 11 11 11 11 10 10 10 10 9 10 10 10 10 10 9 9 9 9 9 9 9 9 9 9 9 9 9 9 9 9 9 10 10 10 10 10 10 10 9 9 9 9 9 8 8 7
17 16 16 16 15 15 16 15 15 15 14 14 14 14 14 14 14 14 14 14 14 14 14 14 14 14 14 14 13 13 13 13 13 12 12 12 11 11 11 11 11 11 11 10 10 10 10 10 10 10 10 10 10 9 9 9 9 9 9 9 9 9 9 9 9 9 9 9 9 9 9 9 10 10 10 10 10 9 9 9 9 9 8 8 8
17 16 16 15 15 16 16 15 15 15 14 14 14 14 14 14 13 13 13 14 14 14 14 14 14 13 13 13 13 13 13 13 13 13 12 12 11 11 11 11 11 11 10 10 10 10 10 10 10 10 10 9 10 9 9 9 9 9 9 9 9 10 10 9 9 9 9 9 9 9 10 10 10 10 10 10 10 9 9 9 9 9 9 9 9
17 16 16 15 15 15 15 15 15 15 15 15 14 14 14 14 14 13 13 13 13 13 13 13 13 13 13 13 13 13 13 13 13 13 12 12 12 11 11 11 11 11 11 10 10 10 10 10 10 10 9 9 9 9 9 9 9 9 9 9 9 10 9 9 9 9 9 9 9 10 10 10 10 10 10 10 10 10 9 9 9 9 9 9 9
16 16 15 15 15 15 15 15 15 15 15 14 14 14 13 14 14 13 13 13 13 13 13 13 12 12 12 12 12 12 13 13 13 13 12 12 12 11 11 11 11 11 11 10 10 10 10 10 10 10 10 9 9 9 10 9 9 9 9 9 9 9 9 9 9 9 9 9 9 10 10 10 10 10 10 10 10 10 9 9 9 9 9 9 9
16 16 15 15 15 15 15 15 15 15 14 14 14 13 13 13 13 13 13 12 12 12 12 12 12 12 12 11 11 11 12 12 13 13 13 12 12 12 11 11 11 11 11 11 11 11 11 10 10 10 10 10 10 9 9 9 9 9 9 9 9 9 9 9 9 9 9 9 9 9 10 10 10 10 10 10 10 10 9 9 10 10 9 9 9
16 15 15 15 15 15 15 15 14 14 14 13 13 13 13 13 13 12 12 12 12 11 11 11 11 11 11 10 10 11 11 12 12 12 12 12 12 11 11 11 11 11 11 11 11 11 11 10 10 10 10 10 10 10 9 9 9 9 9 9 9 9 9 9 9 9 9 9 9 9 10 10 10 10 10 10 10 10 9 9 10 10 10 9 9
15 15 15 15 14 14 14 14 13 13 13 14 14 13 13 12 12 12 11 11 11 11 11 11 11 10 10 10 10 10 10 11 12 12 12 12 11 11 11 11 11 11 11 11 10 10 10 10 10 10 10 10 10 9 9 9 9 9 9 9 9 8 8 9 9 9 9 9 9 9 10 10 10 10 10 10 9 10 10 9 10 10 10 10 10
15 15 15 14 14 14 13 13 13 13 14 14 14 13 13 12 12 12 12 12 11 11 11 10 10 10 10 10 10 10 10 11 11 11 11 11 11 10 10 10 10 10 10 10 10 10 10 10 10 10 10 10 9 9 9 9 9 9 9 8 8 8 8 8 8 8 9 9 9 9 9 10 10 9 10 10 10 10 10 9 10 10 10 10 10
15 14 14 13 13 14 13 13 13 13 13 13 13 13 12 12 12 12 11 11 11 11 10 10 10 10 10 10 9 9 10 10 10 11 11 10 10 10 10 10 10 10 9 9 9 9 9 9 9 9 9 9 9 9 9 9 9 9 9 8 8 8 8 8 8 8 8 9 9 9 9 9 9 10 10 10 10 10 10 10 10 10 10 10 10
14 13 13 13 13 13 13 13 13 12 12 13 13 12 12 12 12 12 12 12 11 11 10 10 11 11 11 9 9 9 9 9 10 11 11 10 10 10 10 10 10 10 9 9 9 8 8 8 9 9 9 9 9 9 9 9 9 9 9 8 8 8 8 8 8 8 8 8 8 9 9 9 10 10 10 10 10 10 10 10 10 10 10 10 9
14 13 13 12 12 13 13 13 13 12 12 12 12 12 12 12 13 13 13 13 13 13 12 12 12 12 11 10 9 9 9 10 11 12 11 11 11 10 10 10 10 10 10 9 8 8 8 8 8 8 8 8 8 8 9 9 9 9 9 8 8 8 8 8 8 9 9 9 8 9 9 9 10 10 10 10 10 10 10 10 10 9 10 9 9
13 12 12 12 12 12 12 12 12 12 12 12 12 12 12 12 12 12 13 13 13 13 13 13 13 12 11 11 11 11 11 12 12 12 11 11 10 10 10 10 10 10 9 9 8 7 7 7 7 8 8 8 8 8 9 9 9 9 9 8 8 8 8 9 9 9 9 9 9 9 9 9 9 10 10 10 10 10 10 10 9 9 9 9 9
12 12 12 12 12 12 12 12 12 12 12 12 11 11 11 11 11 11 12 12 12 12 12 12 12 12 12 11 11 11 12 12 12 11 11 11 10 10 10 10 9 9 9 9 7 7 7 7 7 7 7 7 8 8 8 9 9 9 9 8 8 8 8 9 9 9 9 8 9 9 9 9 9 10 10 10 10 10 10 10 9 9 9 9 9
12 12 12 12 12 12 12 12 11 11 11 11 11 11 10 10 10 10 11 11 11 11 11 11 12 12 12 12 11 11 11 11 11 11 11 10 10 10 10 9 9 9 8 8 7 6 6 6 6 7 7 7 7 8 8 8 8 9 8 7 7 8 8 9 9 9 8 8 9 9 9 9 9 10 10 10 10 10 10 10 9 9 9 9 9
13 12 12 11 11 12 11 11 11 11 11 11 11 11 10 10 10 9 9 10 10 10 10 11 11 11 11 11 11 11 11 11 10 10 10 10 10 10 9 9 8 8 7 7 6 6 6 6 6 6 7 7 7 7 7 8 8 8 8 8 7 8 8 9 9 9 9 9 9 9 9 9 10 10 10 10 10 10 10 10 9 9 9 9 9
13 13 13 12 12 12 11 11 11 11 11 11 11 11 11 10 10 9 9 8 9 9 9 9 10 10 10 10 11 10 10 10 10 10 10 10 10 9 9 8 7 7 6 6 6 6 6 6 6 6 6 6 6 7 7 7 7 8 8 8 8 8 8 9 9 9 9 9 9 9 9 10 10 10 10 10 10 9 9 9 9 9 9 9 9
12 12 13 12 12 11 11 11 11 11 11 11 11 10 10 10 10 9 9 9 8 8 8 8 9 9 9 9 10 10 10 10 10 10 10 10 9 9 8 7 7 6 6 6 6 6 6 6 6 6 6 6 6 6 6 7 7 7 7 8 8 8 8 8 9 9 9 9 9 9 9 9 10 10 10 10 10 10 10 10 9 9 9 9 9
12 12 11 11 11 11 11 11 11 11 11 10 10 10 10 10 9 10 10 9 9 8 8 8 8 8 9 9 9 9 9 9 9 10 9 9 9 9 8 7 7 7 7 7 7 7 6 6 6 6 6 6 6 6 6 6 6 7 7 7 8 8 8 8 8 9 9 9 9 9 9 9 10 10 10 10 10 10 10 10 9 9 9 9 9
12 12 11 11 11 11 11 10 10 10 10 10 10 10 9 9 10 10 10 9 9 8 8 8 8 8 9 9 9 9 9 9 9 9 9 9 9 8 8 8 8 8 8 8 7 7 7 7 6 6 6 6 6 6 6 6 6 6 6 7 7 7 8 8 8 8 8 9 9 9 9 9 10 10 10 10 10 10 10 9 9 9 9 9 9
12 12 11 11 11 11 10 10 10 10 10 10 10 10 9 9 9 9 9 9 8 8 8 8 8 9 9 9 9 9 9 8 8 8 9 9 8 8 8 8 8 8 8 8 8 8 8 8 7 7 6 6 6 5 5 5 5 6 6 6 6 7 7 7 8 8 8 8 9 9 9 9 9 10 10 10 10 10 9 9 9 9 9 9 9
12 12 11 11 11 11 11 11 10 10 10 10 9 9 9 9 8 8 8 8 8 8 8 8 8 8 9 9 9 9 8 8 8 8 9 9 9 9 9 8 8 8 8 8 8 8 8 8 8 7 7 6 6 6 5 5 5 5 5 6 6 6 7 7 7 8 8 8 9 9 9 9 9 9 9 9 9 9 9 9 9 9 9 9 9
12 12 11 11 11 11 11 11 10 10 10 9 9 9 9 9 8 8 8 8 8 8 9 8 8 9 9 9 9 9 8 8 8 9 9 9 9 9 9 9 9 9 8 8 8 8 8 8 8 8 7 7 6 6 6 5 5 5 5 5 6 6 6 7 7 7 8 8 8 8 8 9 9 9 9 9 9 9 9 9 9 9 9 9 9
12 12 11 11 11 11 11 10 10 10 10 10 10 9 9 9 9 9 9 8 8 9 8 8 9 9 9 9 9 9 9 9 9 9 9 9 9 9 9 9 9 9 9 8 8 8 8 8 8 8 7 7 6 6 6 6 6 5 5 6 6 6 6 7 7 7 7 8 8 8 8 9 9 9 9 9 9 9 9 9 9 9 9 9 9
13 12 11 11 11 11 10 10 10 10 10 10 10 10 9 9 9 9 9 9 9 8 8 8 8 9 9 8 8 8 8 9 9 9 9 9 9 9 9 9 9 9 9 8 8 8 8 8 8 7 7 7 7 6 6 6 6 6 6 6 6 6 6 7 7 7 7 8 8 8 8 9 9 9 9 9 9 9 9 9 9 9 8 9 8
12 12 11 11 10 10 10 10 10 10 10 9 9 9 9 9 9 9 9 9 9 8 8 8 8 8 8 8 8 8 8 8 8 8 9 9 8 9 8 8 8 8 8 8 8 8 8 7 7 7 7 7 7 7 6 6 6 6 6 6 6 6 6 7 7 7 7 7 8 8 8 9 9 9 9 9 9 9 9 9 9 8 8 8 8
12 11 11 10 10 10 10 10 10 10 10 10 10 9 9 9 9 9 9 9 9 9 9 9 9 9 8 8 8 8 8 8 8 8 8 8 8 8 8 8 8 8 8 8 7 7 7 7 7 7 7 7 7 6 6 6 6 6 6 6 6 6 7 7 7 7 7 7 8 8 9 9 8 8 9 9 9 9 9 9 8 8 8 8 8
12 11 11 10 10 10 10 10 10 10 10 9 9 9 9 9 9 9 9 9 9 9 9 9 9 9 8 8 8 8 8 8 7 7 7 7 7 8 8 8 8 8 8 7 7 7 7 7 6 6 7 7 6 6 6 6 6 6 6 6 6 6 7 7 7 7 7 7 8 8 8 8 8 8 9 9 9 9 9 8 8 8 8 8 8
12 12 11 11 10 10 10 10 10 10 9 9 9 9 9 9 9 9 9 9 9 9 9 9 9 8 8 8 8 8 8 8 8 7 7 8 8 8 8 8 8 8 8 8 7 7 7 6 6 6 6 6 6 6 6 6 6 6 6 6 6 6 7 7 7 7 7 7 7 8 8 8 8 8 9 9 9 9 9 8 8 8 8 8 8
13 12 12 11 11 10 10 10 10 9 9 9 9 9 9 9 9 9 9 9 9 9 9 8 8 8 8 8 8 8 8 8 8 8 8 8 8 8 8 8 8 8 8 8 7 7 7 7 6 6 6 6 6 6 6 6 6 6 6 6 6 6 6 6 6 6 7 7 7 7 8 8 8 8 8 8 8 9 8 8 8 8 8 8 8
13 12 12 11 11 11 10 10 10 10 9 9 9 9 9 9 9 9 9 9 9 9 9 8 8 8 8 8 8 8 8 8 8 8 8 8 8 8 8 8 8 8 8 8 7 7 7 7 7 7 7 7 7 7 6 6 6 6 6 6 6 6 6 6 6 7 7 7 7 7 8 8 8 8 8 8 8 8 8 8 8 8 7 8 7
13 13 12 12 12 11 11 11 10 10 10 9 9 9 9 9 9 9 9 9 9 9 9 9 9 9 8 8 8 8 8 8 8 8 8 8 8 8 8 8 8 8 8 8 8 7 7 7 7 7 7 7 7 7 7 7 6 6 6 6 6 6 6 7 7 7 7 7 7 8 8 8 8 8 8 8 8 8 8 8 8 7 7 7 7
13 13 13 12 12 12 11 11 11 10 10 10 10 9 9 9 9 9 9 9 9 9 9 9 9 9 9 8 8 8 8 8 8 8 8 8 8 8 8 8 8 8 8 8 8 8 7 7 7 7 7 7 7 7 7 7 7 7 7 7 7 7 7 7 7 7 7 7 8 8 8 8 8 8 8 8 8 8 8 8 7 7 7 7 7
13 13 13 12 12 12 11 11 11 11 10 10 10 10 9 9 9 9 9 9 9 9 9 9 9 9 9 8 8 8 8 8 8 8 8 8 8 8 8 8 8 8 8 8 7 7 7 7 7 7 7 7 7 7 7 7 7 7 7 7 7 7 7 7 7 8 8 8 8 8 8 8 7 7 7 7 7 7 7 7 7 6 6 6 6
Height
741 744 747 751 754 757 760 764 767 771 774 776 779 781 784 786 788 791 793 795 797 799 801 803 804 806 808 810 811 813 814 815 817 818 819 821 822 824 825 826 828 828 829 830 832 833 834 834 835 836 837 837 838 839 840 840 841 840 840 840 839 840 841 843 846 849 851 851 852 851 851 851 850 849 849 848 847 846 844 843 841 839 837 836 835
739 742 745 749 751 755 758 762 765 769 772 775 777 780 782 785 787 790 792 794 796 798 800 801 804 805 807 809 810 812 813 815 816 817 819 820 821 823 825 826 827 828 829 830 832 833 833 834 835 836 837 838 838 839 840 841 841 841 841 840 840 840 841 843 845 848 850 851 851 851 850 850 849 849 848 847 846 845 843 842 840 838 837 835 834
737 740 744 746 749 753 756 760 763 767 770 773 776 778 781 783 786 788 791 793 795 797 799 800 803 804 806 808 809 811 813 814 815 817 818 820 821 823 824 825 826 827 828 830 831 832 833 834 834 835 836 838 838 839 840 841 841 841 841 841 841 841 842 843 845 847 849 850 850 850 849 849 849 848 848 846 845 844 842 841 840 838 836 835 834
735 739 742 745 748 751 754 758 761 764 768 771 774 776 779 782 784 787 789 791 793 796 798 800 802 803 805 807 808 810 811 813 815 816 818 819 821 822 823 825 826 827 828 830 831 832 832 833 834 835 836 837 838 839 840 841 841 841 842 842 842 842 843 844 845 846 847 848 849 849 849 849 848 848 847 846 845 843 842 840 838 837 836 835 833
733 736 740 743 746 749 752 755 759 762 765 769 772 774 777 780 783 785 788 790 792 794 797 798 800 802 803 805 807 809 810 812 814 815 817 819 820 821 823 824 825 827 828 829 830 831 832 833 834 835 836 837 838 839 840 840 841 841 842 842 842 843 843 844 845 845 846 847 848 848 848 848 848 848 847 846 844 842 841 839 838 836 834 834 833
730 734 738 741 743 746 750 753 756 760 763 766 770 772 775 778 781 784 786 788 791 793 795 797 799 801 802 804 806 808 809 811 813 815 816 818 819 821 822 824 825 827 828 829 831 832 832 833 834 835 836 837 838 839 840 840 841 841 842 842 843 843 843 844 844 845 845 846 847 848 848 848 848 848 847 846 844 841 839 838 837 835 833 832 831
727 732 735 738 741 744 747 751 754 758 761 764 767 770 774 777 779 782 785 787 789 791 793 796 797 799 801 803 805 807 808 810 812 814 815 817 818 820 822 824 825 827 828 829 831 832 833 834 834 835 836 837 837 838 839 840 841 841 842 842 843 843 843 844 844 845 845 846 847 847 848 848 849 849 848 847 845 842 839 837 835 834 833 831 829
725 729 733 736 738 741 745 749 752 756 760 763 765 768 772 775 778 781 783 785 788 790 792 794 796 798 800 802 804 805 807 809 811 812 814 816 818 820 821 823 825 826 828 830 831 832 833 834 834 835 836 837 838 838 839 840 841 842 842 842 843 843 843 844 844 844 845 845 846 846 846 847 848 849 849 847 844 842 840 838 836 834 833 832 830
722 726 730 732 735 738 743 748 751 755 758 761 764 766 770 773 776 779 781 783 786 788 791 793 795 797 798 800 802 804 806 807 809 811 813 815 817 819 821 823 824 826 828 830 831 832 833 834 834 835 836 837 838 839 840 840 841 842 842 842 843 843 843 844 843 843 844 844 844 844 844 845 846 848 848 846 844 842 840 839 837 835 833 832 830
719 723 726 729 733 737 741 745 749 753 755 758 762 765 768 771 774 777 779 782 784 787 790 792 793 795 797 799 801 802 804 806 808 810 813 815 817 819 821 823 825 826 828 829 831 832 833 833 834 835 836 837 838 839 840 841 841 842 841 841 842 842 843 843 843 842 843 843 843 843 842 842 844 846 846 845 843 842 840 839 837 835 833 831 829
716 720 723 727 731 735 738 742 746 750 753 756 759 763 766 769 772 775 777 780 783 785 788 790 792 793 795 797 799 801 802 805 807 810 813 815 817 818 820 822 824 825 827 828 829 831 832 833 834 835 836 837 837 837 837 837 839 840 840 840 841 841 842 843 843 843 843 842 842 841 840 841 843 844 844 843 842 841 839 838 837 835 833 831 829
713 717 721 725 729 732 736 740 743 747 750 754 757 761 764 768 770 773 775 778 781 784 786 788 790 792 794 796 797 799 801 804 807 810 812 814 815 817 819 820 822 824 825 826 828 830 831 832 833 834 834 833 833 832 831 831 832 834 836 838 838 839 840 842 843 843 842 842 840 839 838 840 841 842 842 842 841 840 839 838 836 835 833 832 830
711 715 719 722 726 729 733 737 741 744 748 751 755 759 762 765 768 771 774 777 779 782 785 787 789 791 792 794 796 798 801 803 806 808 810 811 813 815 817 819 820 822 824 825 827 828 829 829 829 830 830 830 830 831 830 829 829 831 834 835 836 836 838 840 840 841 841 840 838 837 837 839 840 840 841 840 839 839 838 837 836 835 833 832 830
709 713 716 720 723 727 731 735 738 742 746 749 753 756 760 763 766 769 772 775 778 780 783 785 787 789 791 793 795 797 799 802 804 806 808 810 812 814 816 817 819 821 822 823 824 825 825 825 826 826 827 828 829 829 830 830 831 832 834 834 834 835 836 837 838 839 839 839 837 836 836 837 838 839 839 839 838 837 837 836 835 834 833 831 830
707 710 714 717 721 724 728 733 736 740 744 747 751 754 757 761 764 767 770 773 775 778 781 783 785 787 789 791 793 795 798 800 802 804 806 809 811 813 815 817 818 819 821 821 822 822 824 825 825 826 826 826 827 827 828 829 830 831 833 834 834 834 835 836 837 837 838 837 836 835 835 836 836 837 837 837 837 836 836 835 834 833 832 830 829
704 708 711 714 718 722 726 730 734 738 742 745 749 752 755 759 762 765 768 771 774 777 779 781 783 785 788 790 792 794 796 798 801 803 805 807 810 812 814 815 816 818 819 820 820 822 824 825 825 825 825 825 826 827 828 828 829 831 832 833 833 834 834 835 836 837 837 836 835 834 834 835 835 835 835 835 835 835 835 834 833 832 831 829 828
702 705 708 711 715 719 723 727 732 736 739 743 747 750 753 756 760 763 766 769 772 775 777 779 781 784 786 788 790 791 794 797 799 801 804 806 808 810 812 813 814 816 817 819 820 821 823 824 824 825 825 825 826 827 828 829 829 830 831 832 832 833 834 835 835 836 835 835 834 834 833 834 834 834 834 834 834 834 834 833 832 831 830 829 828
699 702 705 709 712 716 721 725 729 733 737 740 744 747 751 754 758 761 764 767 770 773 775 777 780 782 784 786 787 789 792 795 797 800 802 805 806 808 810 811 812 814 816 818 819 821 822 822 823 824 825 826 827 828 829 829 829 830 830 831 831 832 833 834 835 835 835 834 833 833 833 833 833 833 833 833 833 833 832 832 831 830 829 828 827
696 699 703 707 711 715 719 723 727 731 735 738 741 744 748 751 755 758 761 764 767 770 773 775 778 780 782 784 786 788 790 793 796 798 800 803 804 806 808 809 811 813 815 817 818 820 821 822 822 823 824 825 827 828 829 829 829 829 830 829 829 830 831 833 834 834 834 833 833 832 832 832 832 832 832 832 832 832 831 830 830 829 828 827 826
693 697 702 706 710 714 718 721 725 728 732 736 738 741 745 749 752 756 759 762 765 767 770 772 775 777 779 782 784 786 788 791 794 796 798 800 802 804 806 808 809 811 813 815 816 818 819 820 821 822 823 824 826 827 828 828 828 828 828 828 828 828 830 831 832 833 833 833 832 832 832 832 831 831 831 831 831 830 830 830 829 828 827 826 825
693 697 701 705 709 713 716 720 723 726 730 733 736 740 743 746 749 752 755 759 762 764 767 770 773 775 777 780 782 784 786 789 791 794 796 798 800 802 804 805 807 810 811 813 815 816 817 818 819 820 821 823 825 826 826 826 826 827 827 826 827 828 829 829 830 831 831 831 831 831 831 831 831 830 830 830 830 829 829 829 828 827 826 825 824
692 696 701 705 709 713 716 719 722 725 728 731 735 739 742 744 747 750 753 757 760 763 765 768 771 773 776 778 780 782 785 788 790 792 794 796 798 800 802 804 806 808 810 811 812 813 814 815 817 818 819 821 823 824 824 824 825 825 825 825 826 827 828 828 828 829 829 830 830 830 830 830 830 830 829 829 829 828 828 827 827 826 825 824 823
691 696 700 705 710 713 716 720 723 725 728 730 733 737 741 744 747 749 752 755 759 762 764 766 769 772 774 776 779 781 784 786 789 791 793 795 796 798 800 802 804 806 807 809 810 811 812 813 815 816 817 819 820 822 822 823 823 823 824 824 825 826 826 827 827 827 827 828 828 828 828 828 828 828 828 828 828 827 827 826 826 825 824 823 822
692 697 701 705 710 714 717 720 722 725 727 730 733 737 741 744 747 750 752 755 758 762 764 765 767 770 772 775 777 780 782 784 787 789 791 793 795 797 799 801 803 804 805 806 808 809 810 812 813 815 815 817 818 820 820 821 821 822 822 823 824 825 825 825 826 826 825 826 826 826 826 827 827 827 827 827 826 826 825 825 824 824 823 822 821
692 697 702 706 710 713 716 719 721 725 728 731 734 737 740 744 747 750 754 757 759 761 762 764 766 768 771 774 776 778 780 782 785 787 789 791 794 795 798 800 801 803 804 805 807 808 809 811 812 813 814 815 816 817 818 818 819 820 821 822 822 823 823 824 824 824 824 824 824 824 825 825 825 825 825 825 825 824 824 823 823 822 822 821 820
692 696 701 705 709 712 714 717 721 725 729 731 734 736 739 742 745 748 751 754 757 759 761 763 765 767 769 772 773 776 778 780 782 785 787 789 792 794 796 798 800 802 803 804 806 807 808 809 811 811 812 813 814 815 815 816 817 818 819 820 820 821 821 822 822 822 822 822 822 822 823 823 823 823 823 823 822 822 822 821 821 820 820 819 818
692 696 700 704 708 710 713 717 721 724 728 731 734 737 739 741 744 746 748 751 754 757 759 761 764 766 768 769 771 774 776 778 780 782 785 787 789 792 795 797 798 800 801 803 804 805 806 808 809 810 810 811 812 813 813 814 815 816 816 817 818 819 819 820 820 820 820 820 820 820 820 821 821 821 821 820 820 819 819 819 819 818 818 817 816
693 697 700 704 707 710 713 716 720 723 726 729 733 736 738 740 742 743 745 747 750 753 756 759 761 762 764 766 770 773 775 776 777 779 781 784 787 789 792 794 796 798 799 801 802 803 805 806 807 808 808 809 810 811 811 812 812 813 814 815 815 816 817 818 818 818 818 818 818 818 818 818 818 818 818 818 817 817 817 817 817 816 816 815 814
693 697 700 704 707 710 713 715 718 721 725 728 731 734 736 737 739 741 742 744 746 748 751 754 756 758 760 764 767 771 773 774 774 777 780 782 784 787 789 791 794 796 797 799 800 801 802 803 804 805 806 807 808 809 809 810 810 811 811 812 813 814 815 815 815 815 815 816 816 816 816 816 816 816 816 815 815 815 816 815 815 814 814 813 813
693 697 700 703 706 709 712 715 717 720 723 727 731 734 737 739 740 741 742 744 746 748 750 752 754 756 759 763 765 768 770 771 773 776 779 781 783 786 788 790 792 794 796 797 798 799 800 801 802 803 804 805 806 807 807 808 808 808 809 810 810 811 812 812 813 813 813 814 814 814 814 814 814 813 813 813 813 813 814 814 813 813 812 811 811
692 696 699 702 705 708 711 714 717 720 723 727 730 733 737 739 741 743 744 745 747 749 750 752 754 757 760 762 765 767 769 770 773 776 778 780 782 784 787 789 791 793 794 795 796 797 798 799 800 801 802 803 803 804 805 805 806 806 806 807 808 808 809 810 810 811 812 812 812 812 812 812 812 811 811 811 811 812 812 812 812 811 811 810 809
689 694 698 700 704 707 710 713 717 720 724 727 730 733 735 738 741 743 745 746 748 749 751 753 755 757 759 762 764 766 768 770 772 774 776 778 781 783 785 787 789 791 792 793 794 794 795 796 797 798 799 800 800 801 802 803 803 804 804 805 805 806 807 808 809 810 810 810 810 810 810 810 810 809 809 809 809 809 810 810 810 810 809 808 808
685 691 696 700 703 707 710 713 717 720 722 726 729 732 734 736 738 741 744 746 748 750 751 753 755 757 759 761 763 765 767 769 771 773 775 777 779 781 783 785 787 788 790 791 791 792 793 794 794 795 796 796 797 798 799 800 801 801 802 803 804 805 806 808 808 808 808 808 808 808 808 808 808 807 807 807 807 807 807 808 808 808 807 806 806
684 688 693 698 702 706 709 712 715 718 721 725 727 730 733 735 737 739 742 744 747 749 750 752 754 756 758 760 762 764 766 768 770 772 774 775 777 779 781 783 784 786 787 788 789 789 790 790 791 792 793 794 795 796 796 797 798 799 800 801 802 804 805 806 806 806 806 806 806 806 806 805 805 805 805 805 805 805 805 806 806 806 805 804 804
687 690 693 698 701 705 708 711 714 717 720 723 726 729 732 735 737 739 741 743 745 747 749 751 752 754 757 759 761 763 765 767 769 771 773 774 776 777 779 780 782 783 784 785 786 786 787 788 788 789 790 791 792 793 794 795 796 797 798 799 801 802 803 804 804 804 804 804 804 804 803 803 803 803 803 803 803 803 803 804 804 804 803 803 802
688 692 695 699 702 705 708 710 713 716 719 722 725 729 731 734 737 739 741 742 744 746 748 749 751 753 755 758 760 762 764 766 768 770 771 773 774 775 776 778 779 780 781 782 782 783 784 785 785 787 788 789 789 790 791 792 793 794 795 796 798 799 800 801 801 802 802 802 802 802 801 801 801 801 801 801 801 802 802 802 803 802 802 801 801
688 692 696 699 702 705 708 711 714 716 719 722 726 729 732 734 736 738 740 741 742 744 746 749 750 752 754 756 758 760 762 764 766 768 769 771 772 773 774 775 777 778 778 779 780 781 782 782 783 784 786 787 787 788 789 790 791 792 793 794 795 796 796 797 798 799 799 799 799 799 799 799 799 799 799 799 800 800 801 801 801 800 800 800 799
690 692 696 699 702 705 708 711 714 717 720 723 726 729 731 734 735 737 739 740 741 743 745 747 749 751 752 754 757 759 761 763 764 766 767 769 770 771 772 774 775 776 776 777 778 779 780 780 781 782 783 784 785 786 787 788 788 789 790 791 792 793 793 794 795 796 796 796 797 797 797 797 797 797 797 797 798 799 799 799 799 799 799 799 798
691 694 697 699 702 705 707 711 714 717 720 723 726 729 731 732 734 736 738 739 740 741 743 745 748 749 751 753 755 758 759 761 763 764 765 767 768 769 771 772 773 774 775 776 777 778 778 779 780 781 781 782 783 784 785 785 786 787 788 789 790 790 791 792 792 793 794 794 794 794 794 795 795 795 795 795 796 797 797 797 797 797 797 797 797
692 695 698 700 703 705 708 711 715 718 721 724 726 728 730 732 733 735 736 737 739 740 741 744 746 748 750 752 754 756 758 759 761 763 764 766 767 768 769 770 771 772 773 774 775 776 776 777 778 779 780 780 781 782 782 783 784 785 785 786 787 788 788 789 790 791 791 792 792 792 792 792 792 792 793 794 795 795 795 795 795 796 796 795 795
692 695 698 700 703 706 709 712 716 718 721 724 726 728 730 731 732 734 735 736 737 739 741 743 745 747 749 751 753 755 757 758 760 761 763 764 765 767 768 768 769 770 771 772 773 774 775 776 777 777 778 779 779 780 780 781 782 783 783 784 785 786 786 787 788 788 788 789 789 790 790 790 790 791 791 792 792 792 793 793 793 794 793 793 793
693 695 698 701 704 707 710 713 716 719 722 724 726 728 730 731 732 733 734 735 737 739 741 743 745 747 749 750 752 754 756 757 759 760 761 763 764 765 766 767 768 769 770 771 771 772 773 774 775 775 776 777 777 778 779 779 780 781 782 782 783 784 784 784 785 785 786 786 786 787 787 788 788 789 789 790 790 790 790 791 791 791 791 791 790
694 696 699 702 704 707 710 714 717 719 722 724 726 727 729 730 731 732 733 735 737 739 741 744 745 747 748 750 752 754 755 757 758 759 760 762 763 764 765 766 766 767 768 769 770 770 771 772 773 773 774 775 776 776 777 778 778 779 779 780 781 781 781 781 782 783 783 783 784 784 785 785 786 787 787 787 787 788 788 789 789 789 789 788 788
696 698 700 702 705 708 712 715 717 720 722 724 725 727 727 728 730 731 733 735 737 739 742 744 745 747 748 750 751 753 754 756 757 758 759 761 761 762 763 764 765 766 766 767 768 769 769 770 771 771 772 773 774 774 775 775 776 776 777 777 778 778 779 779 780 781 781 781 781 782 783 783 784 784 784 785 785 785 786 786 786 786 786 786 785
696 698 701 704 707 710 713 715 718 720 722 723 725 726 726 728 729 731 733 735 737 740 742 744 746 747 749 750 751 752 753 754 756 757 758 759 759 760 761 762 763 763 764 765 766 766 767 768 768 769 770 770 771 772 772 773 773 774 774 775 775 776 777 777 778 779 780 780 780 780 781 781 782 782 782 782 783 783 783 783 783 783 783 783 782
698 700 702 705 708 711 714 716 718 720 721 722 723 724 726 727 729 731 733 735 737 739 742 743 745 747 748 750 751 752 753 754 754 755 756 757 757 758 759 760 760 761 762 763 764 765 765 766 766 767 767 768 768 769 770 770 771 771 772 773 773 774 774 775 776 777 777 778 778 778 779 779 780 780 780 780 780 780 781 781 781 781 781 781 780
700 702 705 707 710 713 715 717 718 719 720 721 722 724 726 727 729 731 733 735 737 739 741 743 744 746 748 749 750 751 752 752 753 753 754 755 755 756 757 758 759 760 760 761 762 763 763 764 764 765 765 766 766 767 767 767 768 769 769 770 771 771 772 773 774 774 775 775 776 776 776 776 777 778 778 778 778 778 778 778 778 778 778 778 777
703 705 707 709 711 713 715 716 718 718 719 721 722 724 726 728 730 732 733 735 737 739 740 742 744 745 747 748 749 750 751 751 752 752 753 753 754 755 755 756 757 758 759 759 760 761 761 762 762 763 763 763 764 764 764 765 765 766 766 767 768 768 769 770 771 772 772 773 773 773 774 774 775 775 775 775 775 775 775 775 775 775 775 775 774
705 707 708 710 711 713 714 715 716 717 719 720 722 724 726 728 730 732 734 735 737 738 740 741 743 744 746 747 748 749 749 750 750 751 751 752 753 753 754 755 755 756 757 757 758 759 760 760 761 761 761 761 762 762 762 762 762 763 763 764 765 766 767 768 768 769 769 770 770 770 771 771 772 772 772 772 772 772 772 772 772 772 772 772 771
706 707 709 710 711 712 714 715 716 717 719 721 722 725 727 729 731 733 734 735 737 738 739 741 742 744 745 746 747 747 748 748 749 749 750 751 752 752 753 753 754 754 755 756 756 757 758 758 758 759 759 759 759 759 760 760 760 760 761 762 762 763 764 765 765 766 766 767 767 768 768 768 769 769 769 769 770 769 769 769 769 769 769 769 768
706 707 709 710 711 712 714 715 716 718 720 721 723 726 728 729 731 733 734 735 737 738 739 741 742 743 744 745 745 746 746 747 748 748 749 750 750 751 752 752 753 753 753 754 754 755 756 756 756 757 757 757 757 757 757 758 758 758 759 759 760 761 761 762 763 763 764 764 764 765 765 765 766 766 766 766 767 766 766 766 766 766 766 766 765
Wind_Speed
34 34 34 33 33 34 34 34 34 34 34 34 34 33 33 33 33 32 30 28 26 25 23 22 22 22 21 22 21 21 21 21 20 19 19 19 19 20 21 21 20 20 19 19 18 18 18 18 17 16 15 14 13 13 12 10 9 9 9 10 11 10 9 12 12 9 7 7 7 6 5 5 8 10 10 11 12 15 17 17 16 15 15 14 13
34 35 34 33 34 34 34 34 33 33 33 33 33 33 33 33 33 31 30 28 27 25 24 24 23 23 22 22 22 22 22 22 21 21 21 21 21 22 22 22 21 21 20 19 19 18 19 19 19 18 17 16 15 13 12 11 9 9 10 10 12 12 10 14 14 10 7 7 7 5 4 6 8 10 10 12 14 16 18 19 19 19 18 16 15
34 34 33 33 34 34 34 34 34 33 33 33 33 33 33 33 33 32 30 29 27 26 25 25 24 24 23 23 23 23 23 23 23 22 22 22 23 23 23 23 22 21 21 21 20 20 20 21 20 19 18 17 16 14 13 11 9 9 10 9 10 11 10 12 12 10 8 7 6 4 5 6 8 9 10 12 15 16 18 19 20 20 20 18 16
34 34 33 32 33 33 34 34 34 34 34 34 33 33 33 33 32 32 31 29 28 27 26 25 25 25 24 24 24 24 24 24 24 23 23 23 23 24 24 23 22 22 22 21 21 22 22 22 21 19 17 17 16 15 13 11 9 9 10 8 8 9 8 8 9 9 9 7 5 5 5 6 8 9 10 12 14 16 18 19 20 21 21 19 17
34 34 33 33 33 33 34 34 35 35 35 34 33 33 33 33 32 31 31 30 29 28 27 27 26 26 26 26 25 25 25 24 24 24 23 23 23 24 24 23 23 22 21 21 22 22 22 21 20 19 17 17 17 16 13 12 10 9 9 8 7 7 7 7 7 7 8 8 6 5 6 7 8 9 11 13 16 17 18 18 19 21 22 20 18
35 34 34 33 33 34 34 34 35 35 35 34 33 33 33 33 32 32 31 30 30 29 29 28 27 27 27 26 26 25 25 25 24 24 23 23 24 24 24 23 23 22 21 21 21 21 20 19 19 18 17 16 16 15 13 11 10 9 9 8 6 6 6 6 6 5 6 8 7 6 7 7 7 8 10 13 17 19 20 19 19 21 23 23 19
35 35 34 34 33 34 34 34 34 34 34 34 33 33 33 33 32 32 31 31 31 31 30 29 28 27 27 26 26 25 25 25 24 24 24 24 24 24 23 23 22 22 21 21 20 19 18 18 17 16 16 15 14 14 12 11 9 8 8 7 6 6 7 6 5 6 7 8 8 8 7 6 6 7 9 13 16 18 20 21 21 21 22 23 22
35 34 34 33 33 34 33 32 32 33 33 32 33 33 33 33 32 32 31 31 31 31 31 30 29 28 27 26 25 25 26 25 25 25 24 24 24 23 23 23 22 22 21 19 18 17 17 16 16 15 14 13 12 11 11 10 8 7 6 6 7 7 7 7 8 9 9 9 9 8 7 6 5 7 10 13 16 17 18 19 19 20 21 22 20
35 34 34 33 33 34 33 31 31 31 32 32 32 33 33 33 33 32 32 31 31 31 31 30 29 28 27 26 26 26 26 26 26 25 25 24 24 23 23 22 22 22 20 19 17 16 16 16 15 13 12 10 9 8 7 7 6 5 6 7 8 8 10 10 10 10 10 9 9 7 6 5 4 7 10 13 14 15 16 16 17 17 19 20 19
35 34 34 33 32 33 33 32 31 31 32 32 32 33 33 33 33 33 32 31 32 32 30 29 29 28 28 27 26 27 27 27 26 25 24 24 23 23 22 22 22 21 20 20 18 16 15 15 14 12 10 8 6 5 5 6 4 4 5 7 8 10 11 12 11 10 10 9 8 6 5 4 4 7 10 12 14 14 14 15 16 17 18 19 19
34 34 33 32 32 33 33 32 32 32 33 33 33 33 33 33 33 33 33 32 32 32 31 30 29 28 27 27 27 28 28 27 25 24 23 23 23 23 23 23 23 22 21 20 19 17 16 16 14 11 10 8 7 7 8 8 7 6 8 9 9 9 10 10 9 8 8 7 6 5 5 3 4 7 10 12 13 13 12 13 14 16 16 15 14
34 33 32 32 33 33 33 33 33 33 34 33 33 34 34 33 33 33 33 32 32 32 31 30 29 28 27 28 28 28 28 26 25 24 23 23 23 23 24 24 24 23 22 21 20 19 18 17 14 13 12 12 13 14 14 14 13 13 13 13 12 10 8 7 6 5 4 4 4 5 5 3 4 7 10 12 12 10 10 12 12 13 14 13 13
33 32 32 33 34 34 33 33 34 34 34 34 33 33 33 34 34 33 33 32 32 32 31 30 29 28 28 28 28 28 27 25 25 24 23 24 24 24 24 25 25 24 23 22 22 21 20 19 18 17 17 17 16 17 17 17 17 16 15 14 13 11 8 7 6 4 4 2 3 4 4 2 4 7 9 10 10 8 8 11 11 11 13 14 15
32 32 32 33 34 34 34 34 34 34 34 34 33 33 33 34 34 33 33 32 32 32 31 30 29 29 28 28 28 27 26 25 25 25 24 24 24 24 24 25 25 25 24 24 24 24 23 22 21 20 19 19 19 18 18 18 18 17 16 14 13 11 8 7 6 6 6 4 2 4 3 1 4 6 7 6 6 7 8 10 10 10 12 13 15
31 31 32 32 34 35 35 35 34 34 34 33 33 34 34 33 33 32 33 33 33 32 31 30 30 29 28 28 28 27 26 26 25 25 25 24 24 24 24 25 25 25 25 26 26 25 24 22 20 19 20 21 21 20 20 20 19 17 15 13 12 10 8 7 7 7 6 5 3 3 1 1 3 4 4 3 3 5 7 8 9 9 11 14 15
30 31 32 32 34 36 36 36 35 34 34 33 33 34 34 33 33 33 33 33 33 32 31 30 30 29 28 28 28 28 27 26 26 26 25 25 24 25 25 26 26 26 28 28 26 24 22 20 19 20 21 21 21 22 21 20 18 16 14 12 11 9 8 7 7 7 6 5 3 2 1 1 2 3 2 1 2 4 5 6 7 7 10 14 16
30 31 32 33 35 37 37 37 35 35 35 34 34 33 34 33 33 33 32 32 31 31 30 30 30 29 29 29 29 29 28 27 27 26 26 25 25 27 28 27 27 28 29 28 25 23 21 21 21 21 21 22 22 22 21 19 17 15 13 12 10 9 8 8 8 7 6 6 4 3 3 3 1 2 1 3 2 4 4 5 6 7 9 11 11
29 31 32 34 36 37 38 38 36 35 35 36 35 34 34 34 34 34 33 32 31 31 30 30 29 29 29 30 31 31 29 28 27 27 27 26 26 28 29 29 28 29 29 27 24 23 22 22 23 21 21 22 23 21 19 18 16 16 14 11 10 10 10 10 10 9 7 6 5 5 5 4 2 1 1 3 3 4 4 4 5 6 8 9 9
30 32 33 35 36 37 38 38 38 37 36 36 36 36 36 35 35 35 34 33 31 30 30 30 30 30 31 31 31 31 30 28 28 28 28 27 28 29 30 30 29 29 29 27 25 24 23 23 23 21 20 21 21 18 17 16 16 15 12 10 10 11 12 12 12 10 9 7 7 6 5 3 2 2 2 3 4 4 4 3 5 6 7 10 10
32 32 32 33 35 38 39 39 39 38 37 36 37 37 36 35 34 35 34 32 31 30 31 32 31 32 32 31 31 31 30 29 28 29 29 28 29 30 31 31 30 29 28 28 26 25 24 24 23 22 21 21 19 15 15 16 16 14 12 11 11 11 11 12 13 12 10 9 8 7 6 3 2 3 3 2 3 4 3 2 4 6 7 10 11
31 31 32 34 35 37 37 38 38 39 40 39 36 35 36 36 36 36 34 31 30 30 32 31 30 30 31 31 31 31 31 29 28 29 30 29 30 32 32 32 31 29 28 29 27 26 26 24 23 23 23 23 20 15 14 16 16 16 15 13 11 10 10 12 13 13 12 11 10 9 7 5 3 3 3 2 2 3 3 2 4 6 8 10 11
31 32 33 34 34 34 35 37 39 39 37 36 34 33 34 35 35 35 33 31 30 30 31 30 28 28 29 30 30 30 30 29 28 29 31 31 31 32 32 32 31 28 28 29 28 28 27 24 23 24 24 25 23 19 16 15 16 18 18 16 13 12 11 11 13 13 14 13 12 11 10 7 6 5 4 3 2 2 3 3 4 6 8 10 10
32 32 33 34 33 33 34 35 36 35 33 33 34 33 32 32 32 32 32 31 30 28 28 28 27 26 27 27 27 27 28 29 27 28 31 32 31 31 31 32 30 27 27 29 28 29 29 25 22 24 26 26 25 23 19 18 18 18 18 17 16 14 12 12 13 14 14 13 13 12 11 9 7 6 5 5 4 4 4 4 4 6 8 10 9
31 31 32 32 31 32 33 33 33 31 31 31 31 31 31 30 29 28 28 28 27 25 26 26 26 25 24 24 23 24 26 28 27 28 30 31 31 31 32 31 29 26 27 28 28 28 29 25 21 23 27 26 25 23 21 20 19 18 18 18 18 16 14 13 13 14 14 14 14 13 12 11 9 7 6 6 7 7 7 6 6 7 10 11 9
31 31 30 28 29 30 30 30 29 28 29 31 31 30 30 28 26 25 24 24 25 24 25 25 25 24 23 22 23 24 25 26 28 29 30 31 31 32 32 31 28 26 26 27 26 27 27 25 22 23 25 25 24 23 22 21 20 19 19 19 19 17 15 14 14 14 15 15 15 13 13 12 11 10 9 9 10 11 10 9 8 9 11 11 10
30 31 29 28 29 30 29 28 29 28 30 32 32 31 31 29 28 28 28 27 26 25 24 24 23 22 22 23 24 24 24 25 27 28 30 31 32 32 32 29 27 25 24 24 23 24 24 24 23 24 25 24 23 23 23 22 21 20 20 20 19 18 17 16 16 16 16 16 15 14 13 12 12 12 12 12 13 14 13 13 12 11 12 13 12
28 26 27 29 31 32 30 29 30 30 30 30 28 27 29 29 29 29 29 28 26 23 23 23 21 21 23 24 23 23 24 26 27 28 30 32 33 33 32 30 28 26 24 23 23 22 21 22 23 23 23 23 22 22 22 23 22 22 22 21 20 19 18 18 17 17 17 16 16 16 15 13 13 14 14 13 14 14 15 15 14 13 12 13 14
26 24 27 29 30 31 30 30 30 30 29 28 28 27 28 30 30 31 31 31 29 26 25 25 26 27 28 25 22 21 22 25 27 28 30 32 33 33 32 31 29 28 26 25 23 21 20 20 21 21 20 19 19 19 21 22 22 22 22 22 21 20 19 18 18 18 17 17 17 16 16 15 14 15 15 14 13 13 13 13 13 13 12 13 14
26 26 28 29 28 28 29 29 30 29 28 27 27 27 29 31 32 32 32 33 33 32 31 31 32 32 30 26 24 22 22 25 27 27 27 29 31 32 32 31 30 28 27 26 24 21 19 19 19 19 18 17 16 17 18 20 21 22 22 22 21 20 20 19 20 19 18 17 17 16 16 16 16 15 15 15 14 13 13 13 13 12 12 13 14
25 26 28 29 29 30 29 27 27 28 28 28 26 24 24 26 27 28 29 30 31 31 30 32 32 31 28 26 24 23 23 24 24 23 24 26 28 28 29 29 27 25 25 25 24 22 21 20 20 19 18 17 17 17 17 19 21 22 23 22 22 22 21 20 20 20 18 17 17 16 16 16 16 16 16 15 15 15 15 15 14 13 13 14 15
25 25 27 29 31 31 30 28 27 27 27 27 26 24 21 19 20 22 24 26 27 27 26 26 26 25 23 22 22 22 23 22 20 19 20 22 24 25 25 25 24 23 23 24 24 23 23 22 22 21 20 20 20 19 18 18 19 21 23 23 23 23 22 21 20 19 19 18 17 16 16 16 17 17 16 15 16 17 17 18 17 16 15 15 15
27 25 26 29 31 31 30 29 28 27 26 25 25 24 21 18 16 16 17 20 22 23 23 22 20 19 19 18 19 20 21 20 18 17 16 16 18 20 21 22 21 21 22 22 23 24 24 24 24 24 24 24 24 22 21 20 19 20 21 22 23 23 22 20 19 19 19 18 17 16 15 15 16 16 15 16 17 18 19 19 19 18 16 15 15
31 28 27 28 29 28 28 28 28 27 27 26 25 24 23 21 19 17 16 16 17 17 18 18 18 17 16 17 17 17 16 15 14 14 13 13 13 13 15 17 19 19 20 20 21 22 24 25 26 26 26 27 27 26 25 24 22 20 20 21 22 22 20 18 18 18 16 16 15 15 14 15 15 15 16 16 17 17 18 19 18 16 15 15 16
30 31 31 31 30 28 28 29 28 27 27 27 26 25 24 22 21 20 18 16 15 15 15 15 15 15 15 15 15 14 13 11 10 10 11 11 10 11 13 16 17 18 19 19 21 22 24 25 26 27 27 27 27 27 27 26 25 23 21 21 21 20 18 17 17 17 15 15 15 16 15 15 15 15 16 16 15 14 14 14 14 13 12 13 15
25 29 31 31 30 29 29 29 29 27 27 26 25 24 22 19 18 19 18 17 15 14 14 15 15 15 15 14 13 12 11 10 9 9 9 9 10 12 14 15 16 17 18 20 22 23 24 25 26 26 26 26 26 26 26 27 26 24 23 22 21 21 20 18 17 16 15 15 15 15 14 13 13 13 15 15 13 11 10 10 10 10 10 11 13
24 26 27 27 27 28 28 28 27 26 26 24 23 22 20 18 17 17 18 18 16 15 15 15 15 15 15 14 14 13 11 10 10 10 10 11 13 14 15 16 18 19 21 22 23 23 24 25 25 26 26 26 26 25 25 26 26 26 25 24 23 23 22 20 18 17 16 15 14 14 11 10 11 13 14 14 11 10 10 10 10 9 9 11 12
25 26 26 25 25 25 25 24 23 22 22 22 21 20 19 18 18 18 18 18 16 15 14 14 14 15 15 15 15 14 13 12 12 12 13 14 15 16 17 19 20 21 22 23 23 23 24 24 25 25 25 25 25 24 24 25 25 25 25 25 24 24 23 21 19 18 17 16 16 14 12 11 13 14 13 13 12 11 11 11 9 9 11 12 13
25 26 26 25 24 23 22 21 20 19 19 19 19 19 19 18 18 18 18 17 16 15 14 14 14 15 16 16 16 15 14 13 14 14 15 16 17 17 18 20 21 22 23 22 22 22 23 23 23 23 24 24 24 23 23 23 23 23 23 23 23 23 23 22 22 21 19 17 17 16 14 14 15 14 13 13 13 12 12 11 10 11 13 14 15
22 22 23 22 21 21 21 21 20 19 19 18 18 18 18 17 17 16 16 16 16 15 14 14 15 15 16 15 15 15 15 15 16 16 17 18 18 18 19 20 21 22 22 22 22 22 22 22 22 22 22 22 22 22 22 22 22 22 22 22 22 22 23 23 23 21 18 17 17 17 16 16 16 13 13 14 15 14 12 11 12 13 14 15 17
21 21 20 20 20 19 20 20 20 19 19 18 18 17 17 17 17 16 16 15 15 14 14 14 15 15 15 14 15 16 16 17 17 18 18 18 19 19 20 21 22 22 23 23 23 22 22 21 20 20 21 20 20 19 20 20 19 19 19 20 21 21 21 21 20 19 18 19 20 19 18 16 14 12 12 14 14 13 11 12 14 14 15 16 19
21 21 20 19 19 19 19 19 19 19 18 18 17 17 16 16 15 15 14 14 13 13 13 14 14 14 13 14 15 15 16 17 18 18 19 19 20 21 21 22 22 22 22 22 22 22 21 20 20 20 19 18 17 16 16 17 16 17 17 17 18 20 20 20 20 21 21 21 20 19 17 14 11 9 9 11 10 9 11 14 15 15 15 17 20
21 22 22 20 19 20 20 19 18 18 18 17 17 16 15 14 13 12 12 11 11 12 13 13 12 11 11 12 12 14 15 17 18 18 19 19 19 20 20 20 21 21 21 21 21 21 21 21 21 20 18 17 16 16 16 16 16 16 17 17 18 19 20 21 20 20 19 19 18 16 13 11 9 7 7 7 8 10 14 16 16 15 16 19 22
21 22 22 21 20 19 19 19 19 18 18 17 16 14 13 12 12 11 11 11 11 11 11 10 10 9 9 10 11 13 15 17 17 18 18 18 19 19 20 20 21 21 21 21 20 21 21 22 21 20 19 17 17 16 16 16 16 16 17 18 18 19 19 18 17 15 15 16 15 13 12 11 10 8 8 9 10 13 16 17 17 16 17 19 22
20 21 21 20 19 17 17 17 17 17 16 15 14 13 12 12 11 11 11 11 10 9 8 7 8 8 9 9 10 12 15 17 19 19 19 18 19 19 19 19 19 18 18 18 18 19 21 21 21 20 20 18 18 18 17 16 16 16 16 17 17 17 16 14 12 11 12 13 11 11 11 11 11 10 10 11 13 14 15 16 15 15 16 18 19
19 20 19 18 17 16 15 15 15 14 14 14 13 12 12 11 11 11 11 11 10 9 8 8 8 9 10 10 11 12 14 16 17 18 18 18 17 17 16 16 16 15 14 14 14 15 17 18 19 19 19 19 19 19 18 17 16 15 15 15 15 15 13 12 11 10 11 12 10 9 11 12 13 12 12 12 13 14 13 12 12 14 16 16 17
17 18 17 17 16 15 14 14 14 13 13 13 13 13 12 11 11 11 10 9 9 8 9 9 10 10 11 11 11 12 13 14 14 15 15 14 15 14 14 14 14 14 13 12 12 12 13 14 15 16 16 16 16 17 17 16 15 15 15 15 15 15 14 12 12 13 14 15 14 13 13 14 14 14 13 12 12 12 12 12 14 15 17 18 19
15 16 16 16 15 14 13 13 12 12 12 12 12 12 12 11 11 10 9 8 8 8 8 8 9 10 10 11 11 11 11 11 12 11 11 12 13 13 14 14 14 14 13 12 12 11 11 11 11 12 12 13 13 14 14 14 14 14 14 15 15 16 16 16 17 17 18 17 15 14 13 13 14 13 12 12 13 13 14 15 15 17 19 20 19
14 14 15 15 14 13 13 12 11 11 11 11 11 11 10 10 10 9 9 9 9 8 8 8 8 9 9 10 10 10 10 10 10 10 10 11 11 12 13 13 14 14 13 13 12 11 10 10 10 10 11 11 12 12 12 12 13 13 14 15 16 16 17 18 19 18 17 15 14 13 12 12 13 14 14 15 16 17 16 15 16 19 21 20 18
14 14 14 14 13 13 12 11 11 11 11 10 10 10 10 10 10 10 10 10 10 9 9 8 8 9 10 10 10 9 9 9 9 9 9 9 9 10 11 12 12 13 13 12 11 11 10 9 9 10 10 10 11 11 10 10 11 11 12 12 13 14 14 15 15 15 14 14 13 13 13 14 14 15 16 18 19 18 17 16 18 20 21 19 18
14 13 13 13 12 12 11 10 10 10 9 9 9 9 10 10 11 11 11 11 11 11 11 9 8 9 10 10 9 8 8 8 8 7 7 6 6 7 7 8 9 10 10 10 10 9 9 9 9 9 9 9 9 10 9 9 8 8 8 8 9 10 10 11 12 12 12 13 13 14 15 15 15 16 18 19 19 19 19 19 20 20 20 20 20
13 12 12 12 12 12 11 11 10 10 9 9 9 9 9 10 11 11 12 13 13 13 12 11 9 8 9 8 8 7 7 6 6 6 6 5 4 5 5 6 7 7 7 7 7 7 7 8 8 8 8 8 9 9 9 8 7 6 6 6 7 8 9 10 11 11 11 12 13 13 14 15 16 17 18 19 20 20 20 20 20 20 20 21 21
Wind_Direction
185 185 186 187 187 188 190 191 193 195 198 200 202 202 203 203 203 204 205 205 207 207 209 211 211 211 212 211 210 214 215 211 210 211 209 210 210 208 204 199 199 196 191 189 189 190 187 180 173 168 165 163 156 152 148 142 138 131 132 143 136 133 154 146 130 129 122 99 95 93 74 37 22 26 32 34 37 38 37 37 37 36 34 30 25
185 185 186 186 187 188 188 189 191 194 196 198 201 202 202 203 204 205 206 208 209 210 211 210 209 211 211 210 209 208 208 208 208 208 208 209 207 204 202 199 197 194 190 189 187 186 185 178 170 167 167 164 157 154 152 147 143 134 128 130 126 122 137 143 135 132 125 110 105 95 61 31 30 40 43 37 34 33 32 34 35 34 33 31 27
185 185 185 186 187 187 187 188 190 193 195 197 199 201 202 203 205 206 208 210 211 211 211 209 208 210 210 209 208 207 207 208 208 208 209 209 206 202 201 200 198 195 191 188 185 182 179 174 170 167 168 167 161 158 156 154 152 145 136 132 125 119 128 143 143 134 123 113 105 86 50 39 46 50 47 38 32 28 26 27 28 30 30 29 28
185 185 185 185 185 185 186 188 191 193 195 197 198 199 202 204 205 206 208 210 211 209 209 209 208 209 209 210 209 208 209 209 209 209 210 210 208 204 201 200 199 197 193 188 183 180 177 173 170 169 170 168 164 162 161 159 159 154 144 135 127 120 120 135 141 136 133 127 111 85 62 60 59 51 41 32 26 23 22 21 22 23 26 27 27
183 184 185 184 183 184 186 189 191 193 194 196 197 198 201 204 204 206 208 210 209 207 206 207 208 210 211 211 210 210 210 210 209 209 209 210 210 207 204 201 200 199 196 191 186 182 180 176 171 171 172 168 162 163 164 162 162 159 151 142 135 131 129 129 129 131 136 134 122 98 81 81 69 47 30 18 14 14 15 19 21 19 17 20 25
182 184 184 183 182 183 186 190 191 193 193 194 195 198 201 203 203 206 209 209 207 205 206 208 209 212 213 213 212 212 212 212 211 211 210 209 209 209 206 202 201 200 197 193 189 186 184 180 175 176 178 173 165 165 168 168 167 164 159 155 151 150 146 138 130 128 131 129 119 104 93 88 66 40 24 11 6 6 6 9 19 20 14 12 15
181 183 183 182 181 183 186 190 191 191 192 193 195 199 201 203 204 206 208 208 205 205 207 208 210 212 213 214 214 214 214 212 213 213 211 210 209 208 205 202 202 201 198 194 192 191 190 187 182 182 186 185 179 175 175 175 171 168 170 171 171 171 161 147 135 131 129 120 110 103 97 80 48 22 12 6 6 7 4 1 5 12 11 7 6
181 182 183 183 182 183 186 189 190 190 191 192 195 197 199 202 204 205 205 205 206 207 208 208 210 212 213 215 215 215 215 213 214 213 211 210 209 207 206 204 202 200 197 195 193 194 195 194 190 188 190 191 189 186 186 184 178 173 173 175 179 176 160 145 133 126 124 117 110 109 103 84 46 7 358 1 3 3 2 357 353 357 1 2 7
181 182 183 184 184 183 184 187 189 189 189 191 192 194 197 199 201 201 202 205 207 208 209 210 210 210 212 214 215 215 215 215 215 214 212 210 208 208 207 205 202 199 194 191 191 192 195 194 189 185 184 185 187 190 194 195 197 193 177 170 171 164 150 141 134 128 125 119 114 112 105 90 48 358 351 355 355 354 356 354 350 353 354 357 9
181 182 184 185 184 183 183 185 187 187 188 190 192 192 193 195 196 197 201 204 206 206 208 210 211 211 211 212 213 214 215 216 217 215 214 212 209 208 206 203 201 196 191 189 189 190 190 188 184 179 177 178 181 191 197 198 203 198 170 157 160 159 152 146 139 131 124 117 112 104 92 76 23 354 349 349 351 353 353 350 349 352 352 353 4
182 184 185 185 183 182 183 185 186 187 188 190 191 191 191 192 194 196 198 201 203 204 206 209 211 213 213 212 213 214 215 216 216 215 215 214 211 208 205 203 199 196 194 193 190 187 184 179 175 173 175 180 188 191 189 187 187 181 167 156 155 158 157 152 141 129 122 116 106 90 79 59 5 355 350 347 350 353 351 349 348 349 349 347 349
183 185 185 183 182 182 182 184 184 186 188 190 189 189 189 191 192 194 195 198 200 202 206 209 211 213 214 213 213 215 216 216 215 214 214 213 213 211 207 203 200 198 198 196 190 185 179 173 174 184 191 197 199 195 188 185 186 186 180 172 164 161 164 164 154 143 140 132 105 85 80 58 358 353 349 343 344 349 350 351 351 346 345 342 333
183 184 183 182 181 181 182 183 183 185 188 189 188 186 187 190 191 193 196 198 199 201 205 209 211 212 212 213 215 216 217 216 215 214 215 213 212 211 209 205 204 201 199 195 191 187 183 182 190 201 207 203 198 197 195 189 185 183 181 178 172 169 176 183 185 197 209 188 117 97 94 51 353 351 348 337 333 340 345 349 351 344 343 342 338
183 183 182 181 181 180 181 182 182 184 187 187 186 186 187 189 190 193 196 196 196 200 204 207 210 212 212 214 216 217 217 216 215 214 214 213 211 211 210 208 207 205 200 196 195 194 196 199 203 210 211 203 196 198 198 191 184 182 183 183 181 181 190 200 209 223 228 218 152 118 115 7 351 352 348 332 323 332 336 338 343 342 344 348 349
182 182 181 181 180 179 180 181 182 183 185 184 184 185 186 187 189 192 195 195 197 201 205 208 209 210 213 215 216 218 218 216 215 214 213 211 210 210 210 210 209 206 202 201 203 205 207 210 214 216 212 203 198 198 196 191 189 190 192 192 190 192 204 216 227 233 227 216 172 131 150 322 351 355 345 315 312 331 328 329 336 338 345 353 355
181 181 181 180 179 179 179 179 181 182 182 182 182 183 184 186 189 192 193 195 198 202 206 209 210 211 213 215 217 219 219 216 215 214 211 210 210 210 211 212 211 208 205 206 209 212 214 216 220 222 217 207 202 199 198 195 194 195 198 199 198 204 219 232 237 236 230 220 204 172 218 277 339 346 321 236 293 328 319 325 341 341 343 351 352
182 181 180 180 179 178 179 179 181 181 181 181 181 182 183 186 190 191 191 193 196 201 205 208 210 212 214 216 218 220 218 216 215 213 211 210 209 210 210 211 211 210 209 209 213 217 218 219 223 226 223 215 207 202 200 199 200 204 209 209 207 217 236 247 245 237 230 225 228 247 255 249 264 322 275 219 270 320 311 321 345 344 341 347 343
183 181 181 180 179 178 179 180 181 181 181 181 181 183 184 187 190 192 192 194 197 202 206 207 210 214 217 218 220 219 218 216 214 212 211 211 210 210 210 210 210 211 211 211 215 220 221 222 226 231 229 222 215 209 206 208 213 219 220 215 216 229 242 245 243 238 233 237 250 260 251 238 232 251 233 226 260 305 313 325 342 339 338 344 334
184 182 182 180 178 178 179 181 182 182 182 182 183 184 185 188 191 193 194 196 200 204 206 206 210 215 218 220 220 219 219 217 214 212 211 211 211 212 212 211 209 210 212 212 214 219 223 226 230 233 232 228 224 219 216 219 223 225 222 217 226 241 244 238 237 241 244 253 265 256 236 226 222 200 194 224 258 289 309 331 339 332 334 343 340
185 182 180 178 177 179 181 183 183 183 184 185 185 186 186 187 189 191 193 197 201 204 205 206 209 213 216 218 220 220 220 217 214 212 210 211 213 213 213 211 210 211 213 213 214 217 221 226 232 233 230 229 231 229 224 224 227 228 226 226 236 250 248 235 234 243 252 261 265 250 233 230 220 191 185 213 264 289 295 318 340 338 336 341 343
182 179 177 176 178 181 182 183 183 185 188 188 187 186 187 188 190 192 193 195 198 200 202 203 207 210 213 217 220 221 220 219 216 212 210 212 214 214 213 213 213 215 216 215 216 220 222 227 234 233 229 228 232 234 230 228 233 237 237 237 245 258 256 243 240 246 256 265 266 252 240 239 229 212 210 226 291 306 275 286 344 346 342 342 342
179 176 174 176 178 180 182 183 186 188 188 186 183 184 186 189 191 191 191 192 195 197 199 200 203 207 211 216 219 219 219 219 218 214 212 213 214 215 217 218 217 219 218 216 218 221 225 233 239 236 231 230 232 234 234 232 238 243 243 243 247 254 257 253 250 254 261 267 266 255 246 245 244 241 239 251 306 305 250 261 337 343 338 341 341
175 173 173 175 178 181 183 186 188 188 186 183 181 181 184 187 189 190 189 189 191 193 196 197 198 202 208 213 216 218 217 217 217 216 214 214 215 218 221 221 221 223 223 222 223 225 228 236 244 241 236 234 233 236 239 240 244 248 247 245 246 249 255 257 258 260 265 267 264 256 249 247 249 255 259 269 293 296 262 264 308 328 329 334 339
171 171 172 174 177 182 185 188 189 187 183 180 177 177 182 185 186 188 188 185 185 189 193 194 195 199 203 206 209 213 214 213 214 216 216 216 217 219 220 221 224 229 230 230 232 232 232 238 248 247 242 237 236 240 245 247 249 251 249 246 246 248 251 256 260 262 263 263 263 259 252 248 250 259 270 275 284 292 289 283 294 312 321 326 332
169 171 172 173 176 180 183 183 182 179 177 178 179 179 181 181 180 182 184 184 186 189 191 193 195 197 198 201 206 210 212 211 210 212 214 216 218 218 219 222 226 231 233 233 236 237 238 242 247 246 241 238 239 244 247 248 249 252 250 247 247 249 252 256 260 261 260 261 265 265 260 256 258 264 272 278 282 287 292 294 295 302 310 320 326
170 171 170 170 174 177 177 175 174 174 178 183 186 185 182 180 180 182 184 187 190 191 190 191 194 194 197 203 208 209 208 208 209 211 212 213 215 216 217 221 225 229 232 236 239 240 239 239 238 238 239 242 245 248 249 249 249 251 249 246 246 248 251 254 257 259 261 266 271 273 273 271 271 270 273 281 287 287 287 290 294 298 305 314 320
169 166 163 165 172 177 175 171 170 174 178 181 183 183 183 182 182 181 182 184 187 189 190 189 188 194 201 205 206 206 205 205 208 210 211 212 215 216 218 221 225 228 232 237 240 240 237 234 234 236 240 245 249 250 250 250 250 250 249 247 246 248 251 255 259 261 265 270 273 276 278 279 277 277 281 289 293 291 286 285 288 293 300 308 313
163 157 156 162 171 175 173 169 168 171 175 178 181 184 185 185 186 187 188 190 189 188 188 190 195 204 206 202 197 195 199 205 210 213 214 214 216 218 219 222 225 229 234 238 239 237 233 231 231 234 237 242 244 245 246 248 248 249 249 247 245 246 250 255 258 261 265 269 273 275 278 279 279 281 287 292 292 288 283 280 281 287 295 302 305
157 152 155 160 166 168 170 171 171 170 172 177 183 187 189 191 193 194 196 199 200 199 199 200 206 210 207 201 195 192 199 213 221 222 221 221 222 223 224 224 226 230 236 239 235 229 226 225 225 228 230 234 239 242 244 247 248 249 249 245 242 243 246 250 255 260 265 268 271 274 277 280 281 280 283 286 285 280 276 276 278 283 291 296 299
152 151 155 159 163 166 168 170 170 170 172 176 180 185 190 195 198 199 200 202 204 207 208 209 211 211 207 207 210 212 219 229 233 230 229 229 231 232 231 230 231 235 238 236 231 227 226 225 227 230 232 236 241 245 248 250 249 248 248 245 240 239 241 246 252 259 264 268 272 275 276 278 279 279 279 282 281 276 272 274 278 281 286 292 295
150 154 158 160 164 166 166 167 170 172 174 175 177 179 181 188 197 203 204 204 204 207 211 213 216 216 214 216 220 224 230 237 238 235 235 237 237 237 236 235 238 242 240 234 229 227 228 229 231 235 238 241 245 248 251 254 253 251 249 245 240 237 238 243 250 258 267 273 276 276 275 277 279 280 281 283 284 279 273 272 276 283 288 290 290
155 157 161 163 165 166 166 168 169 170 171 174 178 178 174 174 181 194 203 206 208 209 212 216 220 222 223 224 224 225 229 235 238 239 241 243 242 241 241 242 243 243 239 234 231 230 230 232 235 237 240 242 244 247 250 253 255 255 250 245 240 237 237 242 254 265 273 277 276 274 275 280 282 282 280 281 283 281 277 274 278 284 290 289 286
160 159 161 162 163 165 166 168 169 171 173 175 177 179 178 176 177 181 188 197 204 209 215 221 225 225 223 224 225 227 230 235 239 244 247 247 246 243 243 244 242 238 235 233 232 234 235 236 239 241 242 243 244 246 248 250 254 255 252 247 243 240 241 249 263 273 277 276 275 275 278 282 284 282 281 281 281 280 278 278 282 287 291 292 291
159 162 165 165 165 167 170 171 173 175 176 178 180 183 185 186 184 179 176 179 189 199 205 211 217 219 220 222 223 225 227 229 234 241 247 248 247 243 242 240 236 235 236 236 237 239 240 240 241 243 244 245 246 247 248 250 251 251 249 248 246 246 249 257 267 274 277 277 279 280 281 281 281 280 281 282 280 277 274 275 281 288 293 298 299
160 163 167 168 168 170 172 174 175 176 177 180 183 184 185 186 185 182 178 178 183 189 194 199 204 209 213 216 218 221 224 224 225 231 239 243 242 240 237 232 229 231 234 236 238 241 242 243 245 247 247 248 249 249 250 250 250 248 247 247 247 251 255 259 265 273 277 280 284 287 284 282 281 279 278 276 270 264 264 269 276 284 294 304 308
162 162 165 167 169 171 172 174 175 175 176 178 181 183 182 181 180 182 186 189 189 190 193 197 201 205 210 214 216 218 220 219 217 222 232 239 242 240 234 230 230 232 234 236 239 241 243 246 248 249 251 252 252 252 252 251 251 250 249 248 249 252 255 257 262 271 275 276 281 287 288 288 289 285 275 265 253 248 257 265 270 283 297 306 311
164 163 164 168 170 170 170 170 171 172 174 175 178 180 179 178 180 184 189 191 190 188 190 195 200 204 209 213 215 216 218 218 217 221 230 237 242 244 241 238 237 237 237 239 242 243 245 249 250 251 253 254 254 255 255 254 254 254 253 252 252 252 251 252 257 263 264 263 269 278 282 288 294 288 270 252 242 243 255 265 273 291 305 308 308
165 165 166 168 169 167 165 165 167 170 173 175 178 178 178 179 182 185 187 188 187 186 189 196 203 207 210 212 214 216 219 221 222 226 233 238 243 245 244 242 241 240 242 245 247 247 250 254 256 257 258 259 258 258 257 256 256 256 256 255 255 254 252 252 253 254 254 256 264 273 280 289 295 285 256 239 239 247 260 276 289 301 308 310 308
161 163 166 167 165 165 164 164 166 169 171 173 177 178 177 177 178 180 181 183 185 187 190 198 206 212 215 216 216 216 217 221 225 230 234 240 244 245 243 240 239 241 245 248 249 250 253 256 259 262 265 265 264 263 261 259 259 258 257 257 257 256 254 252 250 249 252 259 268 275 279 288 294 283 252 240 247 256 266 285 297 300 304 306 307
158 160 163 165 164 166 167 167 168 170 172 174 177 179 179 179 180 181 182 183 186 189 195 204 211 217 220 222 222 220 219 221 227 232 235 238 241 241 238 237 239 242 245 247 249 252 255 259 263 267 269 270 269 268 267 265 263 261 260 259 257 255 252 250 250 254 261 270 276 279 280 283 286 279 257 249 253 262 275 289 292 291 293 299 303
157 158 162 165 166 167 167 169 171 174 175 177 180 183 184 185 186 186 186 188 192 195 201 211 218 223 228 231 230 228 228 230 233 235 235 236 237 237 237 239 243 247 250 252 254 255 257 261 267 271 272 273 274 274 273 271 267 263 261 258 256 254 253 254 258 264 269 273 275 276 276 271 265 259 254 251 255 271 285 287 285 285 288 294 299
159 160 162 165 167 166 165 167 171 174 176 178 181 183 186 186 187 189 192 196 201 203 207 215 222 228 235 239 236 235 235 236 236 235 234 234 237 239 242 247 253 257 260 261 261 262 262 265 269 272 274 276 278 279 278 273 269 265 262 258 257 257 259 263 266 268 270 271 272 270 264 248 234 237 255 267 279 286 284 281 283 285 288 293 297
160 160 161 163 164 165 165 167 169 172 175 178 180 182 185 187 189 195 201 204 207 209 213 219 227 235 241 241 238 235 235 234 235 236 237 240 243 247 251 257 261 265 268 269 268 267 266 267 270 273 276 278 280 280 278 275 271 268 264 262 263 265 267 269 269 269 274 278 273 259 242 230 229 245 269 284 288 284 278 275 276 280 286 294 298
157 158 158 159 160 161 163 165 168 171 175 178 180 183 187 190 192 197 203 207 211 216 222 230 239 244 245 240 235 234 234 235 236 237 241 245 250 255 260 264 267 270 272 274 274 271 269 269 271 273 275 277 278 278 278 277 274 271 268 268 270 271 271 268 266 276 294 298 278 246 233 237 247 258 269 277 280 278 275 273 273 279 289 296 298
155 154 154 155 156 158 161 165 170 174 176 178 180 183 186 191 194 198 205 211 216 220 225 231 236 241 242 242 240 238 239 240 240 241 246 251 256 262 268 272 275 278 279 280 280 277 274 274 274 273 274 276 277 278 279 280 279 276 273 272 273 273 271 268 270 286 307 311 297 273 262 264 267 270 272 272 271 271 275 279 283 289 294 296 295
154 152 153 155 156 159 163 168 174 177 177 179 181 183 186 191 196 199 207 215 222 226 229 232 235 238 240 244 246 247 249 250 250 251 255 260 266 273 278 281 283 284 284 283 283 281 279 278 276 275 276 277 277 279 279 278 278 276 274 273 274 273 273 274 280 290 300 304 302 294 285 278 279 283 284 278 271 269 275 281 283 286 289 289 289
154 154 156 158 158 160 165 169 173 177 179 182 185 186 188 192 196 202 211 219 227 235 238 238 239 240 240 243 245 247 251 255 258 262 268 273 278 282 284 284 284 284 284 285 286 285 285 282 279 278 280 280 278 279 278 276 274 273 271 270 271 272 273 277 282 287 293 296 294 290 284 280 280 281 282 281 277 272 271 275 279 284 288 289 289
158 157 160 162 161 162 166 169 174 177 180 183 188 191 194 198 201 207 215 221 226 232 236 238 239 239 239 242 245 247 251 256 262 268 273 278 283 285 284 283 283 282 281 282 283 282 283 284 283 283 285 284 283 283 281 278 275 272 268 267 266 266 269 274 277 279 282 284 280 276 272 273 274 274 277 281 279 272 269 274 282 285 286 287 289
167 165 166 167 166 167 169 172 176 179 180 183 189 193 199 206 210 212 216 220 223 225 229 233 238 242 244 243 242 243 247 253 257 262 267 273 278 281 280 279 279 277 276 275 275 275 277 282 286 287 287 287 288 288 287 284 280 272 265 262 261 260 262 266 267 268 268 266 262 259 258 261 266 270 275 279 278 274 273 277 279 279 279 281 284
174 173 173 172 170 171 173 175 177 180 180 183 188 194 199 207 213 217 217 220 223 226 228 229 233 241 246 245 239 235 238 243 249 255 261 268 273 275 275 274 274 273 271 267 263 265 271 277 280 283 285 287 292 295 295 296 292 280 266 256 250 248 249 251 252 254 255 254 253 253 255 258 263 267 270 272 273 272 272 274 273 274 277 280 282
180 179 181 180 177 175 176 176 177 181 182 183 188 196 204 210 215 218 220 222 224 227 229 228 228 235 241 240 236 233 237 245 255 258 255 254 262 268 269 271 274 276 275 268 260 259 265 271 275 280 286 291 296 297 296 293 287 274 257 243 234 232 236 241 244 248 252 253 255 256 258 260 264 266 267 269 270 271 273 274 272 272 274 276 277